Regional Weather Roundup
Issued by NWS Sioux Falls, SD

Home | Current Version | Previous Version | Graphics & Text | Print | Product List | Glossary Off
Versions: 1 2 3 4 5 6 7 8 9 10 11 12 13 14 15 16 17 18 19 20 21 22 23 24 25 26 27 28 29 30 31 32 33 34 35 36 37 38 39 40 41 42 43 44 45 46 47 48 49 50

000
ASUS43 KFSD 290602
RWRFSD

WEATHER ROUNDUP FOR SE SOUTH DAKOTA/SW MINNESOTA/NW IOWA
NATIONAL WEATHER SERVICE SIOUX FALLS SD
100 AM CDT FRI MAY 29 2015

NOTE: "FAIR" INDICATES FEW OR NO CLOUDS BELOW 12,000 FEET WITH NO
SIGNIFICANT WEATHER AND OR OBSTRUCTIONS TO VISIBILITY.


SDZ038>040-050-052>070-290700-
SOUTHEAST SOUTH DAKOTA

CITY           SKY/WX    TMP DP  RH WIND       PRES   REMARKS
BROOKINGS      MOCLDY    63  57  82 SE10      29.88F
CHAMBERLAIN    CLOUDY    60  58  96 W7        29.88R
6HR MIN TEMP:  58; 6HR MAX TEMP:  66; 6HR PCP:  0.01;

HURON            N/A    N/A N/A N/A MISG      29.83F
MADISON        MOCLDY    63  63 100 S12       29.88R
MITCHELL       CLOUDY    67  61  81 S3        29.84F
6HR MIN TEMP:  67; 6HR MAX TEMP:  81; 6HR PCP: TRACE;

SIOUX FALLS    PTCLDY    67  63  87 S13       29.87F
6HR MIN TEMP:  66; 6HR MAX TEMP:  73;

WINNER         FAIR      60  55  83 NW5       29.90R
YANKTON        CLOUDY    66  63  88 SE9       29.84F
$$

MNZ071-072-080-081-089-090-097-098-290700-
SOUTHWEST MINNESOTA

CITY           SKY/WX    TMP DP  RH WIND       PRES   REMARKS
FAIRMONT       CLOUDY    66  59  77 S9        29.91F
JACKSON        CLOUDY    66  63  88 S9        29.92S
LUVERNE        CLOUDY    66  61  82 S8        29.90S
MARSHALL       CLOUDY    64  55  72 S10       29.87S
6HR MIN TEMP:  64; 6HR MAX TEMP:  81;

MONTEVIDEO     MOCLDY    66  59  77 SW6       29.87S THUNDER
PIPESTONE      PTCLDY    64  61  88 S10       29.89S
REDWOOD FALLS  MOCLDY    66  60  81 S8        29.88F
TRACY          MOCLDY    65  61  87 S10       29.89R
WINDOM         CLOUDY    66  61  82 S9        29.90F
WORTHINGTON    MOCLDY    64  59  82 S10       29.91S
$$

IAZ001>003-012>014-020>022-031-032-NEZ013-014-SDZ071-290700-
NORTHWEST IOWA

CITY           SKY/WX    TMP DP  RH WIND       PRES   REMARKS
DENISON        MOCLDY    66  66 100 S13G20    29.91S
ESTHERVILLE    CLOUDY    65  62  90 S13       29.91F
SIOUX CITY     MOCLDY    67  62  84 SE8       29.88F
6HR MIN TEMP:  67; 6HR MAX TEMP:  72;

SPENCER        CLOUDY    66  63  90 S10       29.91F
6HR MIN TEMP:  66; 6HR MAX TEMP:  69; 6HR PCP: TRACE;

$$

ABBREVIATIONS USED IN REMARKS
   TC - TEMPERATURE IN CELSIUS
  WCI - WIND CHILL INDEX
   HX - HEAT INDEX
  VSB - VISIBILITY




USA.gov is the U.S. government's official web portal to all federal, state and local government web resources and services.